{"data":{"norad_id":60425,"epoch":"2026-09-21T14:12:38.603808Z","epoch_age_seconds":91197,"freshness":"FRESH","line1":"1 60425U 24144A   26264.59211347  .00001877  00000+0  66683-4 0  9999","line2":"2 60425  53.1597  24.2861 0000921  89.7937 270.3171 15.34395645118441","mean_motion":15.34395645,"eccentricity":9.21e-5,"inclination_deg":53.1597,"raan_deg":24.2861,"arg_perigee_deg":89.7937,"mean_anomaly_deg":270.3171,"bstar":6.6683e-5,"rev_number":11844,"period_min":93.84802444483,"perigee_km":462.08614163723,"apogee_km":463.34622679376,"semimajor_km":6840.8531842155,"source":"CELESTRAK","updated_at":"2026-09-22T09:00:49.233279Z"}}